MOZHAYETS 4 (RS-22)

Last updated on Wed Sep 24 2025 00:03:09 GMT+0000 (Coordinated Universal Time)

1 27939U 03042A 25266.14727671 .00002264 00000+0 36357-3 0 9995 2 27939 98.3373 78.2277 0012129 40.0497 87.3797 14.72611365176233
UTC large
Height (km)
Speed (km/s)
/
Latitude / Longitude
Inclination (degrees)
Orbital Period (minutes)
Azimuth
Elevation
Range (km)
Doppler Factor

Next 0 passes for location: London (51.5072 / 0.1276)

Sorry there are no passes over London.